Year,Month,Day,Hour,Minute,Value (Times are PST for temperature in C)
2010,04,01,00,00,1.70
2010,04,01,00,01,1.70
2010,04,01,00,02,1.70
2010,04,01,00,03,1.70
2010,04,01,00,04,1.70
2010,04,01,00,05,1.70
2010,04,01,00,06,1.60
2010,04,01,00,07,1.60
2010,04,01,00,08,1.60
2010,04,01,00,09,1.60
2010,04,01,00,10,1.60
2010,04,01,00,11,1.60
2010,04,01,00,12,1.60
2010,04,01,00,13,1.60
2010,04,01,00,14,1.60
2010,04,01,00,15,1.50
2010,04,01,00,16,1.50
2010,04,01,00,17,1.60
2010,04,01,00,18,1.60
2010,04,01,00,19,1.50
2010,04,01,00,20,1.50
2010,04,01,00,21,1.60
2010,04,01,00,22,1.50
2010,04,01,00,23,1.60
2010,04,01,00,24,1.60
2010,04,01,00,25,1.60
2010,04,01,00,26,1.60
2010,04,01,00,27,1.60
2010,04,01,00,28,1.60
2010,04,01,00,29,1.60
2010,04,01,00,30,1.60
2010,04,01,00,31,1.60
2010,04,01,00,32,1.60
2010,04,01,00,33,1.60
2010,04,01,00,34,1.60
2010,04,01,00,35,1.60
2010,04,01,00,36,1.50
2010,04,01,00,37,1.50
2010,04,01,00,38,1.50
2010,04,01,00,39,1.50
2010,04,01,00,40,1.50
2010,04,01,00,41,1.50
2010,04,01,00,42,1.50
2010,04,01,00,43,1.40
2010,04,01,00,44,1.50
2010,04,01,00,45,1.40
2010,04,01,00,46,1.40
2010,04,01,00,47,1.40
2010,04,01,00,48,1.40
2010,04,01,00,49,1.40
2010,04,01,00,50,1.30
2010,04,01,00,51,1.30
2010,04,01,00,52,1.30
2010,04,01,00,53,1.30
2010,04,01,00,54,1.30
2010,04,01,00,55,1.30
2010,04,01,00,56,1.30
2010,04,01,00,57,1.30
2010,04,01,00,58,1.30
2010,04,01,00,59,1.30
2010,04,01,01,00,1.30
2010,04,01,01,01,1.30
2010,04,01,01,02,1.30
2010,04,01,01,06,1.30
2010,04,01,01,07,1.30
2010,04,01,01,08,1.30
2010,04,01,01,09,1.30
2010,04,01,01,10,1.30
2010,04,01,01,11,1.30
2010,04,01,01,12,1.30
2010,04,01,01,13,1.30
2010,04,01,01,14,1.30
2010,04,01,01,15,1.30
2010,04,01,01,16,1.30
2010,04,01,01,17,1.30
2010,04,01,01,18,1.30
2010,04,01,01,19,1.30
2010,04,01,01,20,1.30
2010,04,01,01,21,1.30
2010,04,01,01,22,1.30
2010,04,01,01,23,1.30
2010,04,01,01,24,1.30
2010,04,01,01,25,1.30
2010,04,01,01,26,1.30
2010,04,01,01,27,1.30
2010,04,01,01,28,1.30
2010,04,01,01,29,1.30
2010,04,01,01,30,1.30
2010,04,01,01,31,1.30
2010,04,01,01,32,1.30
2010,04,01,01,33,1.30
2010,04,01,01,34,1.30
2010,04,01,01,35,1.30
2010,04,01,01,36,1.30
2010,04,01,01,37,1.30
2010,04,01,01,38,1.30
2010,04,01,01,39,1.30
2010,04,01,01,40,1.30
2010,04,01,01,41,1.30
2010,04,01,01,42,1.30
2010,04,01,01,43,1.30
2010,04,01,01,44,1.30
2010,04,01,01,45,1.30
2010,04,01,01,46,1.30
2010,04,01,01,47,1.30
2010,04,01,01,48,1.30
2010,04,01,01,49,1.30
2010,04,01,01,50,1.30
2010,04,01,01,51,1.30
2010,04,01,01,52,1.30
2010,04,01,01,53,1.30
2010,04,01,01,54,1.40
2010,04,01,01,55,1.40
2010,04,01,01,56,1.40
2010,04,01,01,57,1.50
2010,04,01,01,58,1.50
2010,04,01,01,59,1.50
2010,04,01,02,00,1.60
2010,04,01,02,01,1.60
2010,04,01,02,02,1.60
2010,04,01,02,03,1.60
2010,04,01,02,04,1.60
2010,04,01,02,05,1.60
2010,04,01,02,06,1.70
2010,04,01,02,07,1.70
2010,04,01,02,08,1.70
2010,04,01,02,09,1.70
2010,04,01,02,10,1.70
2010,04,01,02,11,1.70
2010,04,01,02,12,1.70
2010,04,01,02,13,1.60
2010,04,01,02,14,1.60
2010,04,01,02,15,1.60
2010,04,01,02,16,1.60
2010,04,01,02,17,1.60
2010,04,01,02,18,1.60
2010,04,01,02,19,1.50
2010,04,01,02,20,1.50
2010,04,01,02,21,1.50
2010,04,01,02,22,1.50
2010,04,01,02,23,1.50
2010,04,01,02,24,1.50
2010,04,01,02,25,1.60
2010,04,01,02,26,1.60
2010,04,01,02,27,1.60
2010,04,01,02,28,1.60
2010,04,01,02,29,1.60
2010,04,01,02,30,1.60
2010,04,01,02,31,1.60
2010,04,01,02,32,1.60
2010,04,01,02,33,1.60
2010,04,01,02,34,1.60
2010,04,01,02,35,1.60
2010,04,01,02,36,1.60
2010,04,01,02,37,1.60
2010,04,01,02,38,1.60
2010,04,01,02,39,1.60
2010,04,01,02,40,1.60
2010,04,01,02,41,1.60
2010,04,01,02,42,1.60
2010,04,01,02,43,1.50
2010,04,01,02,44,1.50
2010,04,01,02,45,1.50
2010,04,01,02,46,1.50
2010,04,01,02,47,1.40
2010,04,01,02,48,1.40
2010,04,01,02,49,1.30
2010,04,01,02,50,1.30
2010,04,01,02,51,1.30
2010,04,01,02,52,1.30
2010,04,01,02,53,1.30
2010,04,01,02,54,1.30
2010,04,01,02,55,1.40
2010,04,01,02,56,1.40
2010,04,01,02,57,1.40
2010,04,01,02,58,1.40
2010,04,01,02,59,1.40
2010,04,01,03,00,1.40
2010,04,01,03,01,1.40
2010,04,01,03,02,1.40
2010,04,01,03,03,1.40
2010,04,01,03,04,1.40
2010,04,01,03,05,1.40
2010,04,01,03,06,1.40
2010,04,01,03,07,1.40
2010,04,01,03,08,1.40
2010,04,01,03,09,1.30
2010,04,01,03,10,1.30
2010,04,01,03,11,1.40
2010,04,01,03,12,1.30
2010,04,01,03,13,1.30
2010,04,01,03,14,1.30
2010,04,01,03,15,1.30
2010,04,01,03,16,1.30
2010,04,01,03,17,1.30
2010,04,01,03,18,1.30
2010,04,01,03,19,1.30
2010,04,01,03,20,1.30
2010,04,01,03,21,1.30
2010,04,01,03,22,1.30
2010,04,01,03,23,1.30
2010,04,01,03,24,1.30
2010,04,01,03,25,1.30
2010,04,01,03,26,1.30
2010,04,01,03,27,1.30
2010,04,01,03,28,1.30
2010,04,01,03,29,1.30
2010,04,01,03,30,1.30
2010,04,01,03,31,1.30
2010,04,01,03,32,1.30
2010,04,01,03,33,1.30
2010,04,01,03,34,1.30
2010,04,01,03,35,1.30
2010,04,01,03,36,1.30
2010,04,01,03,37,1.30
2010,04,01,03,38,1.30
2010,04,01,03,39,1.30
2010,04,01,03,40,1.30
2010,04,01,03,41,1.30
2010,04,01,03,42,1.30
2010,04,01,03,43,1.30
2010,04,01,03,44,1.40
2010,04,01,03,45,1.40
2010,04,01,03,46,1.40
2010,04,01,03,47,1.40
2010,04,01,03,48,1.40
2010,04,01,03,49,1.40
2010,04,01,03,50,1.40
2010,04,01,03,51,1.40
2010,04,01,03,52,1.40
2010,04,01,03,53,1.40
2010,04,01,03,54,1.40
2010,04,01,03,55,1.40
2010,04,01,03,56,1.40
2010,04,01,03,57,1.40
2010,04,01,03,58,1.40
2010,04,01,03,59,1.40
2010,04,01,04,00,1.40
2010,04,01,04,01,1.50
2010,04,01,04,02,1.50
2010,04,01,04,03,1.50
2010,04,01,04,04,1.50
2010,04,01,04,05,1.50
2010,04,01,04,06,1.60
2010,04,01,04,07,1.60
2010,04,01,04,08,1.60
2010,04,01,04,09,1.60
2010,04,01,04,10,1.60
2010,04,01,04,11,1.60
2010,04,01,04,12,1.70
2010,04,01,04,13,1.70
2010,04,01,04,14,1.70
2010,04,01,04,15,1.70
2010,04,01,04,16,1.70
2010,04,01,04,17,1.70
2010,04,01,04,18,1.70
2010,04,01,04,19,1.70
2010,04,01,04,20,1.70
2010,04,01,04,21,1.70
2010,04,01,04,22,1.70
2010,04,01,04,23,1.70
2010,04,01,04,24,1.70
2010,04,01,04,25,1.70
2010,04,01,04,26,1.70
2010,04,01,04,27,1.70
2010,04,01,04,28,1.70
2010,04,01,04,29,1.70
2010,04,01,04,30,1.70
2010,04,01,04,31,1.70
2010,04,01,04,32,1.70
2010,04,01,04,33,1.70
2010,04,01,04,34,1.70
2010,04,01,04,35,1.80
2010,04,01,04,36,1.80
2010,04,01,04,37,1.80
2010,04,01,04,38,1.80
2010,04,01,04,39,1.80
2010,04,01,04,40,1.80
2010,04,01,04,41,1.80
2010,04,01,04,42,1.90
2010,04,01,04,43,1.90
2010,04,01,04,44,1.90
2010,04,01,04,45,1.90
2010,04,01,04,46,1.90
2010,04,01,04,47,1.90
2010,04,01,04,48,1.90
2010,04,01,04,49,1.90
2010,04,01,04,50,1.90
2010,04,01,04,51,1.90
2010,04,01,04,52,1.90
2010,04,01,04,53,1.90
2010,04,01,04,54,1.90
2010,04,01,04,55,1.90
2010,04,01,04,56,1.90
2010,04,01,04,57,2.00
2010,04,01,04,58,2.00
2010,04,01,04,59,2.00
2010,04,01,05,00,2.00
2010,04,01,05,01,2.00
2010,04,01,05,02,2.00
2010,04,01,05,03,2.00
2010,04,01,05,04,2.00
2010,04,01,05,05,1.90
2010,04,01,05,06,1.90
2010,04,01,05,07,1.90
2010,04,01,05,08,1.90
2010,04,01,05,09,1.90
2010,04,01,05,10,1.90
2010,04,01,05,11,1.90
2010,04,01,05,12,1.90
2010,04,01,05,13,1.90
2010,04,01,05,14,1.90
2010,04,01,05,15,1.90
2010,04,01,05,16,1.90
2010,04,01,05,17,1.90
2010,04,01,05,18,1.90
2010,04,01,05,19,1.80
2010,04,01,05,20,1.80
2010,04,01,05,21,1.80
2010,04,01,05,22,1.80
2010,04,01,05,23,1.80
2010,04,01,05,24,1.80
2010,04,01,05,25,1.80
2010,04,01,05,26,1.80
2010,04,01,05,27,1.80
2010,04,01,05,28,1.80
2010,04,01,05,29,1.80
2010,04,01,05,30,1.80
2010,04,01,05,31,1.80
2010,04,01,05,32,1.80
2010,04,01,05,33,1.80
2010,04,01,05,34,1.80
2010,04,01,05,35,1.80
2010,04,01,05,36,1.80
2010,04,01,05,37,1.80
2010,04,01,05,38,1.80
2010,04,01,05,39,1.80
2010,04,01,05,40,1.80
2010,04,01,05,41,1.80
2010,04,01,05,42,1.80
2010,04,01,05,43,1.80
2010,04,01,05,44,1.80
2010,04,01,05,45,1.80
2010,04,01,05,46,1.80
2010,04,01,05,47,1.80
2010,04,01,05,48,1.80
2010,04,01,05,49,1.80
2010,04,01,05,50,1.80
2010,04,01,05,51,1.80
2010,04,01,05,52,1.80
2010,04,01,05,53,1.80
2010,04,01,05,54,1.80
2010,04,01,05,55,1.80
2010,04,01,05,56,1.80
2010,04,01,05,57,1.80
2010,04,01,05,58,1.80
2010,04,01,05,59,1.80
2010,04,01,06,00,1.80
2010,04,01,06,01,1.80
2010,04,01,06,02,1.80
2010,04,01,06,03,1.80
2010,04,01,06,04,1.80
2010,04,01,06,05,1.80
2010,04,01,06,06,1.80
2010,04,01,06,07,1.80
2010,04,01,06,08,1.80
2010,04,01,06,09,1.80
2010,04,01,06,10,1.80
2010,04,01,06,11,1.80
2010,04,01,06,12,1.80
2010,04,01,06,13,1.80
2010,04,01,06,14,1.80
2010,04,01,06,15,1.80
2010,04,01,06,16,1.80
2010,04,01,06,17,1.80
2010,04,01,06,18,1.80
2010,04,01,06,19,1.80
2010,04,01,06,20,1.80
2010,04,01,06,21,1.80
2010,04,01,06,22,1.80
2010,04,01,06,23,1.70
2010,04,01,06,24,1.70
2010,04,01,06,25,1.70
2010,04,01,06,26,1.70
2010,04,01,06,27,1.70
2010,04,01,06,28,1.70
2010,04,01,06,29,1.70
2010,04,01,06,30,1.70
2010,04,01,06,31,1.60
2010,04,01,06,32,1.60
2010,04,01,06,33,1.60
2010,04,01,06,34,1.60
2010,04,01,06,35,1.60
2010,04,01,06,36,1.60
2010,04,01,06,37,1.60
2010,04,01,06,38,1.50
2010,04,01,06,39,1.50
2010,04,01,06,40,1.50
2010,04,01,06,41,1.50
2010,04,01,06,42,1.50
2010,04,01,06,43,1.50
2010,04,01,06,44,1.50
2010,04,01,06,45,1.50
2010,04,01,06,46,1.50
2010,04,01,06,47,1.40
2010,04,01,06,48,1.40
2010,04,01,06,49,1.40
2010,04,01,06,50,1.40
2010,04,01,06,51,1.40
2010,04,01,06,52,1.40
2010,04,01,06,53,1.40
2010,04,01,06,54,1.40
2010,04,01,06,55,1.40
2010,04,01,06,56,1.40
2010,04,01,06,57,1.40
2010,04,01,06,58,1.40
2010,04,01,06,59,1.40
2010,04,01,07,00,1.40
2010,04,01,07,01,1.40
2010,04,01,07,02,1.40
2010,04,01,07,03,1.40
2010,04,01,07,04,1.40
2010,04,01,07,05,1.40
2010,04,01,07,06,1.40
2010,04,01,07,07,1.40
2010,04,01,07,08,1.50
2010,04,01,07,09,1.50
2010,04,01,07,10,1.50
2010,04,01,07,11,1.50
2010,04,01,07,12,1.60
2010,04,01,07,13,1.60
2010,04,01,07,14,1.60
2010,04,01,07,15,1.60
2010,04,01,07,16,1.60
2010,04,01,07,17,1.60
2010,04,01,07,18,1.60
2010,04,01,07,19,1.60
2010,04,01,07,20,1.60
2010,04,01,07,21,1.60
2010,04,01,07,22,1.60
2010,04,01,07,23,1.60
2010,04,01,07,24,1.60
2010,04,01,07,25,1.60
2010,04,01,07,26,1.70
2010,04,01,07,27,1.70
2010,04,01,07,28,1.60
2010,04,01,07,29,1.70
2010,04,01,07,30,1.70
2010,04,01,07,31,1.70
2010,04,01,07,32,1.70
2010,04,01,07,33,1.70
2010,04,01,07,34,1.70
2010,04,01,07,35,1.70
2010,04,01,07,36,1.70
2010,04,01,07,37,1.70
2010,04,01,07,38,1.70
2010,04,01,07,39,1.70
2010,04,01,07,40,1.80
2010,04,01,07,41,1.80
2010,04,01,07,42,1.80
2010,04,01,07,43,1.80
2010,04,01,07,44,1.80
2010,04,01,07,45,1.80
2010,04,01,07,46,1.80
2010,04,01,07,47,1.90
2010,04,01,07,48,1.90
2010,04,01,07,49,1.90
2010,04,01,07,50,1.90
2010,04,01,07,51,2.00
2010,04,01,07,52,2.00
2010,04,01,07,53,2.00
2010,04,01,07,54,2.00
2010,04,01,07,55,2.10
2010,04,01,07,56,2.10
2010,04,01,07,57,2.10
2010,04,01,07,58,2.10
2010,04,01,07,59,2.20
2010,04,01,08,00,2.20
2010,04,01,08,01,2.20
2010,04,01,08,02,2.20
2010,04,01,08,03,2.20
2010,04,01,08,04,2.30
2010,04,01,08,05,2.30
2010,04,01,08,06,2.30
2010,04,01,08,07,2.40
2010,04,01,08,08,2.40
2010,04,01,08,09,2.40
2010,04,01,08,10,2.40
2010,04,01,08,11,2.50
2010,04,01,08,12,2.50
2010,04,01,08,13,2.60
2010,04,01,08,14,2.60
2010,04,01,08,15,2.60
2010,04,01,08,16,2.60
2010,04,01,08,17,2.70
2010,04,01,08,18,2.70
2010,04,01,08,19,2.70
2010,04,01,08,20,2.70
2010,04,01,08,21,2.80
2010,04,01,08,22,2.80
2010,04,01,08,23,2.80
2010,04,01,08,24,2.80
2010,04,01,08,25,2.90
2010,04,01,08,26,2.90
2010,04,01,08,27,2.90
2010,04,01,08,28,2.90
2010,04,01,08,29,3.00
2010,04,01,08,30,3.00
2010,04,01,08,31,3.00
2010,04,01,08,32,3.10
2010,04,01,08,33,3.10
2010,04,01,08,34,3.10
2010,04,01,08,35,3.20
2010,04,01,08,36,3.20
2010,04,01,08,37,3.20
2010,04,01,08,38,3.20
2010,04,01,08,39,3.30
2010,04,01,08,40,3.30
2010,04,01,08,41,3.30
2010,04,01,08,42,3.30
2010,04,01,08,43,3.40
2010,04,01,08,44,3.40
2010,04,01,08,45,3.50
2010,04,01,08,46,3.50
2010,04,01,08,47,3.50
2010,04,01,08,48,3.60
2010,04,01,08,49,3.70
2010,04,01,08,50,3.70
2010,04,01,08,51,3.80
2010,04,01,08,52,3.80
2010,04,01,08,53,3.90
2010,04,01,08,54,3.90
2010,04,01,08,55,4.00
2010,04,01,08,56,4.10
2010,04,01,08,57,4.20
2010,04,01,08,58,4.20
2010,04,01,08,59,4.30
2010,04,01,09,00,4.40
2010,04,01,09,01,4.50
2010,04,01,09,02,4.60
2010,04,01,09,03,4.70
2010,04,01,09,04,4.80
2010,04,01,09,05,4.90
2010,04,01,09,06,5.00
2010,04,01,09,07,5.00
2010,04,01,09,08,5.10
2010,04,01,09,09,5.10
2010,04,01,09,10,5.20
2010,04,01,09,11,5.20
2010,04,01,09,12,5.30
2010,04,01,09,13,5.30
2010,04,01,09,14,5.40
2010,04,01,09,15,5.40
2010,04,01,09,16,5.50
2010,04,01,09,17,5.50
2010,04,01,09,18,5.50
2010,04,01,09,19,5.60
2010,04,01,09,20,5.60
2010,04,01,09,21,5.60
2010,04,01,09,22,5.70
2010,04,01,09,23,5.70
2010,04,01,09,24,5.70
2010,04,01,09,25,5.70
2010,04,01,09,26,5.70
2010,04,01,09,27,5.70
2010,04,01,09,28,5.80
2010,04,01,09,29,5.80
2010,04,01,09,30,5.80
2010,04,01,09,31,5.80
2010,04,01,09,32,5.80
2010,04,01,09,33,5.80
2010,04,01,09,34,5.80
2010,04,01,09,35,5.80
2010,04,01,09,36,5.90
2010,04,01,09,37,5.90
2010,04,01,09,38,5.90
2010,04,01,09,39,5.90
2010,04,01,09,40,5.90
2010,04,01,09,41,6.00
2010,04,01,09,42,6.00
2010,04,01,09,43,6.00
2010,04,01,09,44,6.00
2010,04,01,09,45,6.00
2010,04,01,09,46,6.10
2010,04,01,09,47,6.10
2010,04,01,09,48,6.10
2010,04,01,09,49,6.10
2010,04,01,09,50,6.10
2010,04,01,09,51,6.10
2010,04,01,09,52,6.10
2010,04,01,09,53,6.10
2010,04,01,09,54,6.10
2010,04,01,09,55,6.20
2010,04,01,09,56,6.20
2010,04,01,09,57,6.20
2010,04,01,09,58,6.20
2010,04,01,09,59,6.20
2010,04,01,10,00,6.20
2010,04,01,10,01,6.20
2010,04,01,10,02,6.20
2010,04,01,10,03,6.20
2010,04,01,10,04,6.20
2010,04,01,10,05,6.20
2010,04,01,10,06,6.30
2010,04,01,10,07,6.30
2010,04,01,10,08,6.30
2010,04,01,10,09,6.30
2010,04,01,10,10,6.30
2010,04,01,10,11,6.30
2010,04,01,10,12,6.30
2010,04,01,10,13,6.40
2010,04,01,10,14,6.40
2010,04,01,10,15,6.50
2010,04,01,10,16,6.50
2010,04,01,10,17,6.50
2010,04,01,10,18,6.60
2010,04,01,10,19,6.60
2010,04,01,10,20,6.60
2010,04,01,10,21,6.60
2010,04,01,10,22,6.60
2010,04,01,10,23,6.60
2010,04,01,10,24,6.60
2010,04,01,10,25,6.60
2010,04,01,10,26,6.60
2010,04,01,10,27,6.60
2010,04,01,10,28,6.60
2010,04,01,10,29,6.60
2010,04,01,10,30,6.60
2010,04,01,10,31,6.60
2010,04,01,10,32,6.50
2010,04,01,10,33,6.50
2010,04,01,10,34,6.50
2010,04,01,10,35,6.60
2010,04,01,10,36,6.60
2010,04,01,10,37,6.60
2010,04,01,10,38,6.60
2010,04,01,10,39,6.60
2010,04,01,10,40,6.70
2010,04,01,10,41,6.70
2010,04,01,10,42,6.70
2010,04,01,10,43,6.70
2010,04,01,10,44,6.70
2010,04,01,10,45,6.80
2010,04,01,10,46,6.80
2010,04,01,10,47,6.80
2010,04,01,10,48,6.80
2010,04,01,10,49,6.90
2010,04,01,10,50,6.90
2010,04,01,10,51,6.90
2010,04,01,10,52,7.00
2010,04,01,10,53,7.00
2010,04,01,10,54,7.10
2010,04,01,10,55,7.10
2010,04,01,10,56,7.20
2010,04,01,10,57,7.20
2010,04,01,10,58,7.20
2010,04,01,10,59,7.20
2010,04,01,11,00,7.20
2010,04,01,11,01,7.20
2010,04,01,11,02,7.20
2010,04,01,11,03,7.20
2010,04,01,11,04,7.20
2010,04,01,11,05,7.20
2010,04,01,11,06,7.20
2010,04,01,11,07,7.20
2010,04,01,11,08,7.20
2010,04,01,11,09,7.20
2010,04,01,11,10,7.20
2010,04,01,11,11,7.20
2010,04,01,11,12,7.20
2010,04,01,11,13,7.20
2010,04,01,11,14,7.10
2010,04,01,11,15,7.10
2010,04,01,11,16,7.10
2010,04,01,11,17,7.10
2010,04,01,11,18,7.10
2010,04,01,11,19,7.10
2010,04,01,11,20,7.10
2010,04,01,11,21,7.10
2010,04,01,11,22,7.10
2010,04,01,11,23,7.10
2010,04,01,11,24,7.10
2010,04,01,11,25,7.10
2010,04,01,11,26,7.10
2010,04,01,11,27,7.10
2010,04,01,11,28,7.10
2010,04,01,11,29,7.10
2010,04,01,11,30,7.10
2010,04,01,11,31,7.10
2010,04,01,11,32,7.20
2010,04,01,11,33,7.20
2010,04,01,11,34,7.20
2010,04,01,11,35,7.20
2010,04,01,11,36,7.20
2010,04,01,11,37,7.20
2010,04,01,11,38,7.30
2010,04,01,11,39,7.30
2010,04,01,11,40,7.30
2010,04,01,11,41,7.30
2010,04,01,11,42,7.30
2010,04,01,11,43,7.30
2010,04,01,11,44,7.30
2010,04,01,11,45,7.30
2010,04,01,11,46,7.30
2010,04,01,11,47,7.30
2010,04,01,11,48,7.40
2010,04,01,11,49,7.40
2010,04,01,11,50,7.40
2010,04,01,11,51,7.50
2010,04,01,11,52,7.50
2010,04,01,11,53,7.60
2010,04,01,11,54,7.60
2010,04,01,11,55,7.70
2010,04,01,11,56,7.70
2010,04,01,11,57,7.70
2010,04,01,11,58,7.80
2010,04,01,11,59,7.80
2010,04,01,12,00,7.90
2010,04,01,12,01,8.00
2010,04,01,12,02,8.10
2010,04,01,12,03,8.20
2010,04,01,12,04,8.30
2010,04,01,12,05,8.40
2010,04,01,12,06,8.50
2010,04,01,12,07,8.50
2010,04,01,12,08,8.60
2010,04,01,12,09,8.70
2010,04,01,12,10,8.70
2010,04,01,12,11,8.70
2010,04,01,12,12,8.80
2010,04,01,12,13,8.80
2010,04,01,12,14,8.90
2010,04,01,12,15,8.90
2010,04,01,12,16,8.90
2010,04,01,12,17,9.00
2010,04,01,12,18,9.00
2010,04,01,12,19,9.00
2010,04,01,12,20,9.00
2010,04,01,12,21,9.00
2010,04,01,12,22,9.10
2010,04,01,12,23,9.10
2010,04,01,12,24,9.20
2010,04,01,12,25,9.20
2010,04,01,12,26,9.20
2010,04,01,12,27,9.30
2010,04,01,12,28,9.30
2010,04,01,12,29,9.30
2010,04,01,12,30,9.30
2010,04,01,12,31,9.30
2010,04,01,12,32,9.30
2010,04,01,12,33,9.30
2010,04,01,12,34,9.30
2010,04,01,12,35,9.30
2010,04,01,12,36,9.30
2010,04,01,12,37,9.30
2010,04,01,12,38,9.30
2010,04,01,12,39,9.20
2010,04,01,12,40,9.20
2010,04,01,12,41,9.20
2010,04,01,12,42,9.20
2010,04,01,12,43,9.20
2010,04,01,12,44,9.20
2010,04,01,12,45,9.20
2010,04,01,12,46,9.20
2010,04,01,12,47,9.20
2010,04,01,12,48,9.20
2010,04,01,12,49,9.20
2010,04,01,12,50,9.20
2010,04,01,12,51,9.30
2010,04,01,12,52,9.30
2010,04,01,12,53,9.30
2010,04,01,12,54,9.30
2010,04,01,12,55,9.30
2010,04,01,12,56,9.30
2010,04,01,12,57,9.20
2010,04,01,12,58,9.20
2010,04,01,12,59,9.20
2010,04,01,13,00,9.20
2010,04,01,13,01,9.20
2010,04,01,13,02,9.20
2010,04,01,13,03,9.20
2010,04,01,13,04,9.20
2010,04,01,13,05,9.20
2010,04,01,13,06,9.30
2010,04,01,13,07,9.30
2010,04,01,13,08,9.30
2010,04,01,13,09,9.30
2010,04,01,13,10,9.30
2010,04,01,13,11,9.40
2010,04,01,13,12,9.40
2010,04,01,13,13,9.50
2010,04,01,13,14,9.50
2010,04,01,13,15,9.50
2010,04,01,13,16,9.50
2010,04,01,13,17,9.50
2010,04,01,13,18,9.50
2010,04,01,13,19,9.50
2010,04,01,13,20,9.60
2010,04,01,13,21,9.60
2010,04,01,13,22,9.60
2010,04,01,13,23,9.60
2010,04,01,13,24,9.60
2010,04,01,13,25,9.60
2010,04,01,13,26,9.60
2010,04,01,13,27,9.60
2010,04,01,13,28,9.50
2010,04,01,13,29,9.40
2010,04,01,13,30,9.40
2010,04,01,13,31,9.30
2010,04,01,13,32,9.00
2010,04,01,13,33,8.80
2010,04,01,13,34,8.60
2010,04,01,13,35,8.40
2010,04,01,13,36,8.30
2010,04,01,13,37,8.20
2010,04,01,13,38,8.10
2010,04,01,13,39,8.00
2010,04,01,13,40,7.90
2010,04,01,13,41,7.90
2010,04,01,13,42,7.80
2010,04,01,13,43,7.80
2010,04,01,13,44,7.80
2010,04,01,13,45,7.80
2010,04,01,13,46,7.80
2010,04,01,13,47,7.80
2010,04,01,13,48,7.90
2010,04,01,13,49,7.90
2010,04,01,13,50,8.00
2010,04,01,13,51,8.10
2010,04,01,13,52,8.20
2010,04,01,13,53,8.20
2010,04,01,13,54,8.30
2010,04,01,13,55,8.30
2010,04,01,13,56,8.30
2010,04,01,13,57,8.30
2010,04,01,13,58,8.30
2010,04,01,13,59,8.30
2010,04,01,14,00,8.30
2010,04,01,14,01,8.40
2010,04,01,14,02,8.40
2010,04,01,14,03,8.40
2010,04,01,14,04,8.40
2010,04,01,14,05,8.50
2010,04,01,14,06,8.50
2010,04,01,14,07,8.60
2010,04,01,14,08,8.60
2010,04,01,14,09,8.60
2010,04,01,14,10,8.70
2010,04,01,14,11,8.70
2010,04,01,14,12,8.80
2010,04,01,14,13,8.80
2010,04,01,14,14,8.90
2010,04,01,14,15,8.90
2010,04,01,14,16,8.90
2010,04,01,14,17,8.90
2010,04,01,14,18,8.90
2010,04,01,14,19,9.00
2010,04,01,14,20,9.10
2010,04,01,14,21,9.20
2010,04,01,14,22,9.20
2010,04,01,14,23,9.30
2010,04,01,14,24,9.30
2010,04,01,14,25,9.40
2010,04,01,14,26,9.40
2010,04,01,14,27,9.30
2010,04,01,14,28,9.40
2010,04,01,14,29,9.40
2010,04,01,14,30,9.40
2010,04,01,14,31,9.40
2010,04,01,14,32,9.50
2010,04,01,14,33,9.50
2010,04,01,14,34,9.50
2010,04,01,14,35,9.60
2010,04,01,14,36,9.60
2010,04,01,14,37,9.60
2010,04,01,14,38,9.60
2010,04,01,14,39,9.60
2010,04,01,14,40,9.60
2010,04,01,14,41,9.60
2010,04,01,14,42,9.60
2010,04,01,14,43,9.60
2010,04,01,14,44,9.60
2010,04,01,14,45,9.60
2010,04,01,14,46,9.60
2010,04,01,14,47,9.60
2010,04,01,14,48,9.60
2010,04,01,14,49,9.60
2010,04,01,14,50,9.60
2010,04,01,14,51,9.70
2010,04,01,14,52,9.70
2010,04,01,14,53,9.80
2010,04,01,14,54,9.80
2010,04,01,14,55,9.80
2010,04,01,14,56,9.90
2010,04,01,14,57,9.90
2010,04,01,14,58,9.90
2010,04,01,14,59,9.90
2010,04,01,15,00,9.90
2010,04,01,15,01,9.80
2010,04,01,15,02,9.80
2010,04,01,15,03,9.80
2010,04,01,15,04,9.80
2010,04,01,15,05,9.80
2010,04,01,15,06,9.80
2010,04,01,15,07,9.80
2010,04,01,15,08,9.90
2010,04,01,15,09,10.00
2010,04,01,15,10,10.00
2010,04,01,15,11,10.10
2010,04,01,15,12,10.10
2010,04,01,15,13,10.00
2010,04,01,15,14,10.00
2010,04,01,15,15,10.00
2010,04,01,15,16,9.90
2010,04,01,15,17,9.90
2010,04,01,15,18,9.80
2010,04,01,15,19,9.80
2010,04,01,15,20,9.70
2010,04,01,15,21,9.70
2010,04,01,15,22,9.70
2010,04,01,15,23,9.80
2010,04,01,15,24,9.80
2010,04,01,15,25,9.80
2010,04,01,15,26,9.80
2010,04,01,15,27,9.80
2010,04,01,15,28,9.90
2010,04,01,15,29,9.90
2010,04,01,15,30,9.90
2010,04,01,15,31,9.80
2010,04,01,15,32,9.80
2010,04,01,15,33,9.70
2010,04,01,15,34,9.60
2010,04,01,15,35,9.50
2010,04,01,15,36,9.30
2010,04,01,15,37,9.30
2010,04,01,15,38,9.20
2010,04,01,15,39,9.20
2010,04,01,15,40,9.20
2010,04,01,15,41,9.10
2010,04,01,15,42,9.00
2010,04,01,15,43,8.80
2010,04,01,15,44,8.70
2010,04,01,15,45,8.60
2010,04,01,15,46,8.60
2010,04,01,15,47,8.50
2010,04,01,15,48,8.40
2010,04,01,15,49,8.30
2010,04,01,15,50,8.30
2010,04,01,15,51,8.20
2010,04,01,15,52,8.20
2010,04,01,15,53,8.10
2010,04,01,15,54,8.10
2010,04,01,15,55,8.10
2010,04,01,15,56,8.10
2010,04,01,15,57,8.10
2010,04,01,15,58,8.10
2010,04,01,15,59,8.10
2010,04,01,16,00,8.10
2010,04,01,16,01,8.10
2010,04,01,16,02,8.10
2010,04,01,16,03,8.20
2010,04,01,16,04,8.10
2010,04,01,16,05,8.10
2010,04,01,16,06,8.10
2010,04,01,16,07,8.00
2010,04,01,16,08,7.90
2010,04,01,16,09,7.90
2010,04,01,16,10,7.80
2010,04,01,16,11,7.70
2010,04,01,16,12,7.60
2010,04,01,16,13,7.50
2010,04,01,16,14,7.40
2010,04,01,16,15,7.20
2010,04,01,16,16,7.10
2010,04,01,16,17,7.00
2010,04,01,16,18,6.90
2010,04,01,16,19,6.70
2010,04,01,16,20,6.60
2010,04,01,16,21,6.50
2010,04,01,16,22,6.40
2010,04,01,16,23,6.40
2010,04,01,16,24,6.30
2010,04,01,16,25,6.30
2010,04,01,16,26,6.20
2010,04,01,16,27,6.20
2010,04,01,16,28,6.20
2010,04,01,16,29,6.10
2010,04,01,16,30,6.10
2010,04,01,16,31,6.10
2010,04,01,16,32,6.10
2010,04,01,16,33,6.00
2010,04,01,16,34,6.00
2010,04,01,16,35,6.00
2010,04,01,16,36,5.90
2010,04,01,16,37,5.90
2010,04,01,16,38,5.90
2010,04,01,16,39,5.80
2010,04,01,16,40,5.80
2010,04,01,16,41,5.80
2010,04,01,16,42,5.80
2010,04,01,16,43,5.80
2010,04,01,16,44,5.80
2010,04,01,16,45,5.90
2010,04,01,16,46,5.90
2010,04,01,16,47,5.90
2010,04,01,16,48,5.90
2010,04,01,16,49,5.90
2010,04,01,16,50,5.90
2010,04,01,16,51,6.00
2010,04,01,16,52,6.00
2010,04,01,16,53,6.00
2010,04,01,16,54,6.00
2010,04,01,16,55,6.00
2010,04,01,16,56,5.90
2010,04,01,16,57,6.00
2010,04,01,16,58,5.90
2010,04,01,16,59,5.90
2010,04,01,17,00,5.90
2010,04,01,17,01,5.90
2010,04,01,17,02,5.90
2010,04,01,17,03,5.90
2010,04,01,17,04,5.90
2010,04,01,17,05,5.80
2010,04,01,17,06,5.80
2010,04,01,17,07,5.70
2010,04,01,17,08,5.70
2010,04,01,17,09,5.70
2010,04,01,17,10,5.70
2010,04,01,17,11,5.70
2010,04,01,17,12,5.70
2010,04,01,17,13,5.80
2010,04,01,17,14,5.80
2010,04,01,17,15,5.80
2010,04,01,17,16,5.80
2010,04,01,17,17,5.80
2010,04,01,17,18,5.90
2010,04,01,17,19,5.90
2010,04,01,17,20,5.90
2010,04,01,17,21,5.90
2010,04,01,17,22,5.90
2010,04,01,17,23,6.00
2010,04,01,17,24,6.00
2010,04,01,17,25,6.00
2010,04,01,17,26,6.00
2010,04,01,17,27,6.10
2010,04,01,17,28,6.10
2010,04,01,17,29,6.10
2010,04,01,17,30,6.10
2010,04,01,17,31,6.10
2010,04,01,17,32,6.20
2010,04,01,17,33,6.20
2010,04,01,17,34,6.20
2010,04,01,17,35,6.20
2010,04,01,17,36,6.20
2010,04,01,17,37,6.20
2010,04,01,17,38,6.20
2010,04,01,17,39,6.20
2010,04,01,17,40,6.20
2010,04,01,17,41,6.20
2010,04,01,17,42,6.20
2010,04,01,17,43,6.20
2010,04,01,17,44,6.20
2010,04,01,17,45,6.20
2010,04,01,17,46,6.20
2010,04,01,17,47,6.20
2010,04,01,17,48,6.20
2010,04,01,17,49,6.20
2010,04,01,17,50,6.20
2010,04,01,17,51,6.20
2010,04,01,17,52,6.20
2010,04,01,17,53,6.20
2010,04,01,17,54,6.20
2010,04,01,17,55,6.20
2010,04,01,17,56,6.10
2010,04,01,17,57,6.10
2010,04,01,17,58,6.10
2010,04,01,17,59,6.10
2010,04,01,18,00,6.10
2010,04,01,18,01,6.10
2010,04,01,18,02,6.10
2010,04,01,18,03,6.10
2010,04,01,18,04,6.10
2010,04,01,18,05,6.10
2010,04,01,18,06,6.10
2010,04,01,18,07,6.10
2010,04,01,18,08,6.10
2010,04,01,18,09,6.10